Overview Statistics Trail Chart Weather Telemetry Raw packets
 

This is the latest recevied weather packets stored in our database for station/object K4KMJ. If no packets are shown the sender has not sent any weather packets the latest 10 day(s).

<< 52 53 54 55 56 57 58 >>
Time Temp. Humidity Pressure Rain* Wind** Luminosity Snow
1788312594 25° C 99% 1018.5 hPa 0.51 mm - 0 W/m² -
1788312294 24.44° C 99% 1018.4 hPa 0 mm - 0 W/m² -
1788311985 24.44° C 99% 1018.2 hPa 0 mm - 0 W/m² -
1788311681 24.44° C 99% 1018.3 hPa 0 mm - 0 W/m² -
1788311379 24.44° C 99% 1018.3 hPa 0 mm - 0 W/m² -
1788311074 24.44° C 99% 1018.2 hPa 0 mm - 0 W/m² -
1788310773 24.44° C 99% 1018.1 hPa 0 mm - 0 W/m² -
1788310473 24.44° C 99% 1018.4 hPa 0.51 mm - 0 W/m² -
1788310169 24.44° C 99% 1018.3 hPa 0.51 mm - 0 W/m² -
1788309868 24.44° C 98% 1018.2 hPa 0 mm - 0 W/m² -
1788309564 25° C 98% 1018.2 hPa 0 mm - 0 W/m² -
1788309264 25° C 97% 1018.3 hPa 0 mm - 0 W/m² -
1788308960 25° C 96% 1018.1 hPa 0.51 mm - 0 W/m² -
1788308655 25.56° C 95% 1018.3 hPa 0.51 mm - 0 W/m² -
1788308350 27.22° C 94% 1018.4 hPa 0 mm - 0 W/m² -
1788308049 27.78° C 94% 1018.1 hPa 0 mm - 0 W/m² -
1788307745 27.78° C 93% 1018 hPa 0 mm - 0 W/m² -
1788307440 27.78° C 93% 1018 hPa 0 mm - 0 W/m² -
1788307134 27.78° C 93% 1018.1 hPa 0 mm - 0 W/m² -
1788306829 27.78° C 93% 1017.9 hPa 0 mm - 0 W/m² -
1788306524 27.78° C 92% 1017.8 hPa 0 mm - 1 W/m² -
1788306221 27.78° C 92% 1017.8 hPa 0 mm - 2 W/m² -
1788305913 28.33° C 92% 1018.2 hPa 0 mm - 4 W/m² -
1788305609 28.33° C 91% 1018 hPa 0 mm - 7 W/m² -
1788305305 28.33° C 91% 1017.9 hPa 0 mm - 12 W/m² -

* Rain latest hour (hover to see other rain measurements)
** Current wind speed in m/s (hover to see current wind gust speed)